Location: Boiro
(42.6475°N, 8.8834°W)
Time: 18:23:16
(UTC+01:00)

Transit 2A - Pass Details

Date: 30 November 2021
Orbit: 591 x 967 km, 66.7° (Epoch: 20 January)

Event Time Altitude Azimuth Distance (km) Brightness Sun altitude
Rises 08:52:51 0° 335° (NNW) 3,636 9.0 0.4°
Reaches altitude 10° 08:57:02 10° 1° (N) 2,711 8.6 1.1°
Maximum altitude 09:00:02 13° 29° (NNE) 2,464 8.6 1.5°
Drops below altitude 10° 09:03:01 10° 58° (ENE) 2,701 9.2 2.0°
Sets 09:07:09 0° 84° (E) 3,611 10.4 2.7°
